Wind_Speed
1 5 6 12 6 1 5 5 6 2 2 5 7 6 10 9 8 9 9 9 8 8 10 9 6 3 5 5 8 11 13 16 18 21 24 24 25 26 26 29 28 30 31 32
5 3 3 5 3 1 2 5 3 2 2 2 5 9 9 12 11 10 11 9 9 7 7 9 7 7 7 6 6 10 11 13 16 18 19 18 20 22 23 28 28 27 29 30
5 2 1 3 3 5 3 6 5 3 2 2 2 8 7 9 7 8 9 9 8 10 9 8 10 9 7 7 7 9 9 12 14 16 19 21 21 23 24 28 27 27 27 28
4 1 2 4 3 2 4 3 6 8 5 3 4 5 5 11 15 13 9 9 9 9 8 10 11 8 8 6 6 8 8 11 13 15 19 22 22 19 23 25 26 28 28 28
2 3 2 2 2 2 3 2 6 4 2 3 2 2 7 6 11 17 12 11 10 9 9 9 11 11 9 8 8 6 6 10 12 15 18 20 20 19 21 25 26 28 29 29
2 0 3 3 3 1 6 6 8 5 2 2 4 6 6 6 11 7 9 12 12 10 9 15 13 14 12 8 7 5 7 10 12 14 16 18 19 19 21 24 27 28 29 30
2 2 2 4 6 7 3 5 3 3 3 6 3 4 9 7 8 11 19 16 13 13 10 10 16 16 12 9 7 5 6 9 10 13 15 16 17 18 19 22 24 26 28 30
6 4 7 3 4 7 6 5 5 7 3 4 4 6 7 5 8 7 12 15 15 12 11 9 18 17 13 10 7 6 6 7 9 11 13 14 16 18 19 20 22 23 24 25
5 1 1 4 2 2 5 4 4 6 2 3 4 7 10 3 2 4 11 16 16 13 13 11 20 18 15 11 8 7 6 6 8 10 11 13 15 18 20 21 23 25 25 25
8 4 1 1 1 1 2 4 3 3 2 4 4 4 7 7 9 7 11 17 15 13 12 12 20 20 16 13 10 7 5 5 6 8 11 13 16 18 20 22 24 24 25 25
5 5 1 2 7 8 2 2 1 2 4 5 2 6 7 11 13 16 15 16 18 16 14 12 19 21 18 15 11 9 4 3 6 8 11 14 17 18 19 21 22 23 23 22
3 5 4 7 2 2 4 6 6 4 5 3 3 7 3 2 7 12 14 14 14 14 14 16 20 23 20 17 13 10 5 2 4 8 11 12 13 15 19 21 22 22 22 21
9 1 3 5 3 2 6 7 4 4 3 6 4 7 2 2 2 9 12 12 13 14 14 14 19 19 22 18 15 11 6 2 3 6 8 10 13 16 18 20 21 20 20 20
7 3 7 9 5 6 6 7 10 7 3 4 10 13 13 7 8 8 9 13 14 16 16 14 14 19 23 21 17 11 6 1 2 4 7 9 12 15 17 18 19 19 19 20
5 7 5 4 3 4 4 6 17 14 20 9 18 13 26 13 13 13 14 11 13 16 17 17 15 19 22 23 17 13 8 3 2 4 6 8 10 12 14 17 18 18 18 18
1 2 3 2 4 3 4 8 12 19 7 15 21 22 2 8 6 8 12 15 18 19 18 17 18 22 24 25 21 15 10 7 5 4 6 7 9 13 15 17 19 19 20 21
6 6 3 5 2 3 5 17 17 7 7 12 15 29 5 8 11 13 14 18 21 20 19 19 19 26 26 30 25 19 13 10 8 6 6 7 10 13 15 17 19 21 23 23
7 7 4 3 2 8 4 7 20 22 16 21 18 22 11 7 9 10 12 20 18 18 17 16 24 26 28 30 24 19 16 13 10 8 7 7 9 12 15 16 19 20 23 24
1 4 3 5 5 9 4 5 9 10 16 27 25 26 23 5 3 10 12 14 22 22 24 28 30 33 35 32 26 22 19 15 12 10 8 7 9 12 14 16 18 19 21 23
1 2 2 4 5 11 2 5 8 7 12 15 22 25 9 9 4 14 14 14 10 21 26 30 35 37 37 32 28 25 22 18 15 13 10 9 9 12 13 14 16 17 18 19
3 0 12 5 9 10 7 9 8 6 12 4 10 10 12 9 7 3 6 6 17 24 28 34 37 40 40 35 30 27 24 20 17 15 12 10 10 12 12 12 14 15 17 18
11 12 7 3 7 25 9 6 14 7 3 6 4 7 14 7 7 6 7 12 15 22 27 30 32 35 38 35 32 29 25 21 18 16 13 10 11 10 10 11 12 14 17 19
11 11 10 15 11 2 19 8 10 3 6 7 5 7 9 10 7 10 10 13 14 23 25 30 33 35 36 34 32 30 26 24 21 18 14 11 10 9 8 8 9 13 15 18
5 3 8 5 17 12 12 4 5 6 6 5 5 7 11 9 12 8 12 13 13 22 25 27 32 29 30 33 30 27 28 25 22 20 16 12 10 9 8 6 7 9 12 15
7 14 9 13 15 2 8 16 7 7 5 5 1 5 12 13 14 14 12 14 18 23 25 29 29 29 30 35 30 27 29 27 24 20 18 14 11 8 5 5 5 7 9 11
10 9 13 17 20 17 21 13 14 11 13 11 9 5 7 12 16 12 13 19 25 26 27 27 26 28 32 35 32 30 29 28 26 23 19 16 13 10 6 4 4 3 4 7
Wind_Direction
48 92 184 196 201 126 173 146 130 131 105 157 222 218 207 213 204 194 197 189 186 176 168 163 155 132 120 66 43 34 28 19 19 16 13 14 9 5 5 1 7 10 9 11
37 187 178 137 163 108 28 125 98 55 156 158 227 241 207 206 215 193 190 191 184 169 152 162 140 131 108 74 46 39 39 21 21 15 14 16 12 9 6 3 7 10 7 10
153 168 173 148 139 126 37 158 180 158 143 347 314 284 197 227 206 198 199 186 173 166 161 151 122 117 108 80 59 54 36 28 25 15 16 16 14 11 6 4 7 9 8 8
102 252 180 142 121 112 148 321 131 132 120 210 132 274 239 208 208 211 195 169 169 164 147 147 135 125 119 100 87 65 37 31 28 21 25 26 20 9 359 1 5 8 12 10
188 144 135 112 92 21 166 117 126 126 104 69 209 77 276 159 220 219 197 181 181 173 154 147 140 138 127 118 97 79 45 39 30 27 28 26 20 10 0 4 4 7 8 11
82 316 56 119 31 81 138 72 43 41 59 353 211 170 268 200 223 209 196 195 175 166 154 150 141 142 130 120 105 85 57 46 29 28 26 24 20 8 3 6 4 3 5 7
51 20 348 127 75 353 52 90 13 349 357 221 339 168 246 232 230 199 197 189 170 165 151 148 147 147 140 130 120 89 64 47 30 26 29 22 14 7 5 4 1 360 359 3
155 286 174 207 193 185 186 163 160 204 197 256 355 234 251 214 246 197 188 174 157 162 156 154 156 156 150 145 138 119 81 52 30 25 26 14 10 2 0 357 354 355 354 355
145 195 15 52 359 127 195 197 164 103 57 56 225 272 297 206 143 144 153 158 167 164 158 153 155 161 157 157 149 128 101 63 34 25 18 6 360 353 349 346 342 342 343 346
181 97 342 285 4 347 178 165 84 352 168 264 279 268 249 247 212 181 172 174 169 163 159 156 154 160 159 161 153 135 104 65 30 18 12 357 348 343 341 342 342 339 336 338
135 108 307 99 214 181 148 233 21 141 160 188 241 253 221 230 191 198 188 182 172 170 164 160 159 165 164 160 157 140 123 62 25 5 2 350 346 348 352 355 356 353 348 345
162 119 164 208 273 264 194 194 162 137 234 235 147 260 227 228 224 194 191 179 175 167 161 159 159 163 165 160 155 148 142 83 14 356 359 358 360 2 1 1 2 359 359 -0
179 187 71 349 340 328 216 200 149 121 90 210 142 262 206 282 200 202 181 178 171 161 162 159 159 165 168 162 158 157 156 118 2 356 19 12 9 7 6 4 6 7 10 13
108 138 163 191 186 134 200 193 177 140 135 190 227 264 256 224 222 192 190 185 172 172 168 165 164 167 169 170 167 168 167 152 21 41 37 21 16 11 9 11 15 16 18 19
132 190 154 230 171 179 212 177 186 195 220 196 249 218 253 218 212 207 195 165 163 173 173 174 170 166 163 168 172 177 175 166 132 83 54 31 23 21 20 23 25 26 28 28
48 230 111 302 234 217 232 229 195 216 252 259 262 272 163 251 178 167 182 176 182 182 183 176 170 166 167 173 177 178 179 169 156 110 69 43 37 34 32 31 30 32 34 33
147 135 111 251 42 63 295 214 210 192 199 217 230 244 135 223 205 209 186 189 187 188 182 177 176 171 172 181 181 180 175 167 158 120 83 54 47 44 39 38 37 39 40 39
147 136 128 193 47 263 276 195 206 219 230 231 260 261 232 222 219 227 191 190 193 186 181 177 169 167 169 180 176 172 170 166 158 131 104 76 61 54 48 44 43 44 43 39
74 152 149 167 206 295 216 196 166 176 237 235 234 250 252 134 76 259 193 195 195 186 182 175 170 165 175 174 174 169 165 169 159 137 120 100 79 64 57 53 47 44 42 38
60 51 168 144 192 236 99 161 135 111 275 232 213 233 184 133 184 257 189 183 159 163 164 157 164 171 171 171 172 167 169 171 159 145 135 118 96 78 66 57 50 44 44 40
136 333 215 205 239 271 184 160 156 137 264 184 191 209 157 192 205 225 136 128 152 152 153 158 166 167 174 171 171 170 171 176 159 152 143 130 111 88 73 66 56 48 49 45
164 169 189 183 222 255 142 92 182 196 152 163 170 183 188 178 143 127 123 133 134 135 145 156 154 165 171 172 172 172 176 170 162 156 146 138 117 102 87 73 62 52 49 44
193 186 185 188 219 146 188 187 205 161 153 191 180 190 169 157 172 152 146 143 144 148 151 158 158 161 171 175 178 173 175 171 165 160 152 145 128 115 96 76 61 53 45 41
251 185 205 127 230 224 206 214 197 188 181 173 187 168 161 161 158 153 149 150 149 153 156 157 154 158 167 178 180 183 175 172 169 161 156 150 142 125 115 98 68 50 43 32
170 153 177 243 249 327 228 217 187 194 170 176 268 172 166 157 167 160 158 159 157 157 158 162 161 165 170 177 180 182 180 175 169 165 164 163 152 142 131 105 68 36 32 18
184 170 187 222 222 208 242 189 191 192 202 187 159 149 170 168 159 159 160 163 160 161 160 162 165 166 172 177 180 184 184 178 172 169 173 174 167 163 148 119 95 68 25 12
Height
824 838 846 839 841 833 842 845 855 857 856 858 865 867 868 865 866 870 873 873 874 875 875 878 879 879 880 880 880 878 876 874 871 868 864 860 858 855 854 851 847 842 838 833
833 835 833 832 832 832 833 850 860 860 855 857 855 858 863 859 856 859 865 868 870 872 874 876 877 878 879 879 879 879 877 875 873 870 865 863 860 858 854 851 847 844 840 835
833 835 832 831 834 837 849 851 860 853 859 856 856 862 855 851 850 853 856 858 864 867 871 873 875 877 878 878 879 878 876 875 873 871 866 863 861 859 855 852 848 845 841 837
837 835 834 834 838 841 845 847 852 862 865 875 863 878 849 842 845 845 850 858 862 863 865 869 871 873 876 877 878 877 876 874 873 871 867 863 863 862 859 854 850 846 842 837
837 840 837 838 844 843 846 846 854 861 862 864 866 888 840 842 848 841 848 853 856 859 862 867 870 872 875 876 877 876 875 874 873 871 867 864 863 864 860 855 851 846 842 838
845 842 845 848 849 844 848 854 861 873 877 915 865 872 848 849 825 830 839 842 848 854 858 863 868 871 874 875 875 875 873 873 874 871 867 865 865 864 860 855 852 848 844 839
846 848 848 847 855 853 850 865 921 908 927 893 866 871 836 817 819 818 823 833 842 848 855 860 865 869 871 872 873 874 872 872 871 870 867 866 865 864 861 857 853 850 845 840
855 859 853 847 847 852 859 859 884 886 893 874 867 869 822 811 812 812 817 827 839 847 851 856 861 865 868 870 871 871 870 871 871 868 866 865 865 865 861 857 854 850 847 843
847 843 849 851 849 849 853 867 857 902 937 903 857 842 817 812 811 817 823 829 836 843 848 853 857 862 866 869 870 869 868 870 869 867 865 865 863 863 860 856 853 849 846 842
820 856 852 853 848 852 851 851 869 898 884 899 861 831 812 817 820 820 825 824 832 838 845 849 853 859 863 865 868 867 867 868 868 866 864 865 862 861 859 854 850 847 843 840
814 836 863 854 856 852 860 866 867 861 863 873 880 841 804 794 806 810 815 817 823 830 837 844 849 854 858 862 865 865 866 867 866 866 864 863 861 859 856 852 849 845 842 838
809 844 870 858 848 846 846 845 851 872 860 870 874 840 796 796 801 803 809 814 821 827 833 839 846 850 855 859 863 862 864 866 865 865 861 862 861 858 855 851 847 844 840 837
809 846 885 859 852 850 845 840 841 872 876 869 869 804 797 799 798 804 809 813 818 825 831 836 842 848 853 858 861 861 863 863 863 863 860 861 860 857 854 852 847 844 841 838
797 830 825 807 801 830 839 831 831 850 886 863 828 788 780 798 800 802 807 808 814 819 825 832 838 843 849 853 857 859 861 861 861 861 859 859 858 856 854 850 847 844 841 838
807 818 835 841 813 820 814 818 823 829 810 820 771 805 758 789 797 796 794 804 813 816 821 825 831 838 844 849 853 855 857 859 860 860 858 860 857 855 854 851 847 845 841 838
815 824 827 832 823 821 823 812 820 812 818 815 798 796 771 772 782 792 793 798 800 809 813 818 825 832 838 843 847 852 855 858 859 859 858 860 858 856 854 852 848 845 842 838
817 827 838 833 824 844 838 809 799 805 815 793 795 751 766 773 775 780 787 788 789 796 803 809 815 822 829 834 841 847 852 855 858 858 859 860 858 855 854 852 850 847 842 840
815 817 832 842 846 805 753 773 763 769 768 774 769 749 758 766 767 764 769 775 781 788 796 803 810 817 825 832 838 843 850 854 856 856 859 860 858 856 854 854 851 848 845 841
811 804 821 823 830 767 764 774 777 782 754 747 752 745 739 763 764 759 760 762 765 771 781 791 800 810 819 827 835 840 847 851 853 855 857 858 857 856 854 852 852 849 847 844
805 811 789 829 800 778 734 748 755 756 750 728 733 730 746 759 767 731 748 752 763 771 779 787 798 807 816 825 832 836 844 849 850 853 855 856 856 854 854 855 854 852 849 848
808 812 778 786 763 754 733 746 750 760 712 711 724 728 747 744 734 740 742 750 758 767 777 786 795 802 811 820 828 833 840 845 847 848 852 854 854 855 856 855 854 854 852 850
767 776 774 782 768 729 725 744 726 706 711 711 719 726 730 732 738 740 747 751 758 768 779 786 792 801 810 817 822 830 836 841 844 848 850 856 855 857 856 857 855 854 853 851
725 716 725 724 704 715 707 700 704 711 709 713 714 717 721 732 738 741 747 754 759 767 777 784 789 800 810 815 820 827 834 838 841 845 850 856 855 855 857 858 858 856 854 852
727 720 700 713 687 702 711 707 708 707 706 707 708 713 718 725 733 740 744 750 758 766 774 781 789 798 805 814 819 824 830 835 838 843 848 852 854 854 856 856 857 857 856 854
691 702 703 693 680 697 698 695 698 701 703 708 712 708 711 719 726 733 741 748 755 762 771 779 786 794 800 809 816 822 826 831 836 841 846 849 851 852 856 856 857 857 857 856
668 676 676 652 647 664 656 684 689 695 696 700 705 711 711 713 718 729 738 745 751 758 767 776 784 792 797 806 813 819 825 829 833 839 844 848 848 850 852 855 857 857 857 857